GW2275 Weather Reports


Display with metric or nautical units.
time (UTC)temp
F
wind
direction
speed
MPH
gust
MPH
rain 1hr
in
rain 24hr
in
rain mn
in
humidity
%
barometer
mb
20260510181559 75 282 3.0 9.0 0.12 0.71 0.14 90 1017.2
20260510181502 75 255 3.0 9.0 0.09 0.68 0.10 90 1017.1
20260510180016 77 41 1.0 4.0 0.00 0.59 0.00 87 1016.5
20260510174520 78 53 1.0 3.0 0.00 0.59 0.00 86 1016.9
20260510173026 78 42 1.0 6.0 0.00 0.59 0.00 85 1017.0
20260510171533 79 44 3.0 5.0 0.00 0.59 0.00 87 1017.1
20260510170037 80 51 3.0 6.0 0.00 0.59 0.00 85 1017.1
20260510164524 82 54 2.0 7.0 0.00 0.59 0.00 82 1017.1
20260510163037 83 286 0.0 2.0 0.00 0.59 0.00 79 1017.2
20260510161548 84 143 1.0 2.0 0.00 0.59 0.00 75 1017.3
20260510160037 84 146 0.0 4.0 0.00 0.59 0.00 76 1017.3
20260510154539 84 260 2.0 5.0 0.00 0.59 0.00 76 1017.4
20260510153047 82 288 0.0 5.0 0.00 0.59 0.00 80 1017.5
20260510151551 82 216 1.0 5.0 0.00 0.59 0.00 81 1017.4
20260510150109 81 267 0.0 6.0 0.00 0.59 0.00 83 1017.3
20260510144609 80 136 0.0 7.0 0.00 0.59 0.00 84 1017.2
20260510143058 78 152 1.0 4.0 0.00 0.59 0.00 89 1017.4
20260510141603 77 323 1.0 5.0 0.00 0.59 0.00 93 1017.2
20260510141504 77 32 0.0 4.0 0.00 0.59 0.00 94 1017.1
20260510140005 76 326 1.0 4.0 0.00 0.59 0.00 96 1016.9
20260510134509 76 212 0.0 4.0 0.00 0.59 0.00 97 1016.7
20260510133014 75 220 0.0 5.0 0.00 0.59 0.00 98 1016.7
20260510131520 75 96 0.0 2.0 0.00 0.59 0.00 98 1016.6
20260510130026 75 139 0.0 1.0 0.00 0.59 0.00 98 1016.5
20260510124528 74 205 0.0 2.0 0.00 0.59 0.00 98 1016.5
20260510123033 74 226 0.0 1.0 0.00 0.59 0.00 98 1016.3
20260510121537 73 170 0.0 0.0 0.00 0.59 0.00 98 1016.1
20260510120040 72 283 0.0 1.0 0.00 0.59 0.00 98 1015.9
20260510114607 72 158 0.0 1.0 0.00 0.59 0.00 98 1015.8
20260510113058 71 189 0.0 0.0 0.00 0.59 0.00 98 1015.6
20260510111604 71 189 0.0 0.0 0.00 0.59 0.00 98 1015.3
20260510111502 71 189 0.0 0.0 0.00 0.59 0.00 98 1015.3
20260510110016 71 189 0.0 0.0 0.00 0.59 0.00 97 1015.3
20260510104516 71 189 0.0 0.0 0.00 0.59 0.00 97 1015.0
20260510103026 71 189 0.0 1.0 0.00 0.59 0.00 97 1014.8
20260510101531 71 174 0.0 0.0 0.00 0.59 0.00 98 1014.6
20260510100038 71 174 0.0 0.0 0.00 0.59 0.00 97 1014.4
20260510094537 71 174 0.0 0.0 0.00 0.59 0.00 97 1014.4
20260510093040 72 174 0.0 0.0 0.00 0.59 0.00 97 1014.3
20260510091549 72 174 0.0 0.0 0.00 0.59 0.00 97 1014.1
20260510090040 72 174 0.0 2.0 0.00 0.59 0.00 97 1013.9
20260510084548 72 176 0.0 2.0 0.00 0.59 0.00 97 1013.8
20260510083055 72 150 0.0 3.0 0.00 0.59 0.00 97 1013.7
20260510081559 72 162 0.0 1.0 0.00 0.59 0.00 97 1013.5
20260510081502 72 162 0.0 1.0 0.00 0.59 0.00 97 1013.5
20260510080015 72 161 0.0 1.0 0.00 0.59 0.00 97 1013.6
20260510074518 72 91 0.0 1.0 0.00 0.59 0.00 97 1013.7
20260510073024 72 168 0.0 1.0 0.00 0.59 0.00 97 1013.8
20260510071533 72 189 0.0 0.0 0.00 0.59 0.00 97 1013.9
20260510070047 72 190 0.0 1.0 0.00 0.59 0.00 97 1014.0
20260510064549 72 157 0.0 0.0 0.00 0.59 0.00 97 1014.2
20260510063048 72 135 0.0 1.0 0.00 0.59 0.00 97 1014.4
20260510061600 72 152 0.0 0.0 0.00 0.59 0.00 97 1014.7
20260510061503 72 152 0.0 0.0 0.00 0.59 0.00 97 1014.6
20260510060013 72 143 0.0 1.0 0.00 0.59 0.00 97 1014.8
20260510054519 72 136 0.0 0.0 0.00 0.59 0.00 97 1014.8
20260510053028 71 198 0.0 0.0 0.00 0.59 0.00 97 1015.1
20260510051534 71 198 0.0 0.0 0.00 0.59 0.00 97 1015.2
20260510050040 72 245 0.0 1.0 0.00 0.59 0.00 97 1015.5
20260510044557 72 245 0.0 0.0 0.00 0.59 0.00 97 1015.4
20260510043109 72 246 0.0 0.0 0.00 0.59 0.00 97 1015.6
20260510041503 72 246 0.0 0.0 0.00 0.59 0.00 97 1015.6
20260510040016 72 246 0.0 0.0 0.00 0.59 0.59 97 1015.6
20260510034515 72 246 0.0 0.0 0.00 0.59 0.59 97 1015.6
20260510033023 72 246 0.0 0.0 0.00 0.59 0.59 97 1015.5
20260510031530 72 246 0.0 0.0 0.00 0.59 0.59 97 1015.6
20260510030023 72 246 0.0 0.0 0.00 0.59 0.59 97 1015.5
20260510024534 72 246 0.0 0.0 0.00 0.59 0.59 97 1015.4
20260510023037 72 246 0.0 0.0 0.00 0.59 0.59 97 1015.1
20260510021534 72 247 0.0 0.0 0.00 0.59 0.59 97 1015.2
20260510020038 72 248 0.0 0.0 0.00 0.59 0.59 97 1015.0
20260510014524 72 248 0.0 0.0 0.00 0.59 0.59 97 1014.7
20260510013029 72 248 0.0 1.0 0.00 0.59 0.59 96 1014.7
20260510011535 72 248 0.0 0.0 0.00 0.59 0.59 96 1014.6
20260510010059 72 262 0.0 0.0 0.00 0.59 0.59 96 1014.6
20260510004600 72 262 0.0 0.0 0.00 0.59 0.59 96 1014.6
20260510003006 73 262 0.0 0.0 0.00 0.59 0.59 96 1014.3
20260510001520 73 262 0.0 0.0 0.00 0.59 0.59 96 1014.2
20260510000020 73 262 0.0 0.0 0.00 0.59 0.59 96 1013.9
20260509234526 73 262 0.0 0.0 0.00 0.59 0.59 96 1013.7
20260509233018 73 262 0.0 0.0 0.00 0.59 0.59 96 1013.8
20260509231522 73 262 0.0 0.0 0.00 0.59 0.59 96 1013.7
20260509230029 73 262 0.0 1.0 0.00 0.86 0.59 96 1013.4
20260509224537 73 255 0.0 2.0 0.00 0.86 0.59 95 1013.4
20260509223057 73 31 0.0 1.0 0.00 0.86 0.59 95 1013.3
20260509221553 73 8 0.0 0.0 0.00 0.86 0.59 95 1013.3
20260509220105 73 315 0.0 2.0 0.00 1.23 0.59 95 1013.4
20260509220002 73 315 0.0 2.0 0.00 1.23 0.59 95 1013.4
20260509214504 73 355 0.0 2.0 0.00 1.23 0.59 94 1013.3
20260509213013 75 288 0.0 1.0 0.01 1.23 0.59 95 1013.3
20260509211521 75 301 0.0 2.0 0.02 1.23 0.59 95 1013.4
20260509210024 74 241 0.0 1.0 0.33 1.23 0.59 95 1013.4
20260509204541 74 291 0.0 1.0 0.57 1.23 0.59 94 1013.2
20260509203042 74 80 0.0 2.0 0.57 1.22 0.57 93 1013.3
20260509201548 75 336 1.0 3.0 0.56 1.21 0.56 93 1013.0
20260509200058 76 319 6.0 16.0 0.28 0.93 0.28 88 1014.0
20260509194508 78 56 0.0 2.0 0.01 0.65 0.01 87 1012.8
20260509193016 80 29 0.0 2.0 0.00 0.64 0.00 84 1012.9
20260509191520 81 63 2.0 4.0 0.00 0.64 0.00 81 1012.5
20260509190028 83 62 1.0 3.0 0.00 0.64 0.00 76 1012.8
20260509184538 87 309 1.0 5.0 0.00 0.64 0.00 63 1012.8
20260509183042 88 175 1.0 6.0 0.00 0.64 0.00 62 1013.2